MAS2274 WIII-WMKK

Flight info

Callsign MAS2274
Flight time 1h 37m
Altitude 40000
Route DOLTA T25 GUSKO A585 PLB G579 VJB A457 GUPTA GUPTA1G
Aircraft A333/H-SDE3GHIJ2J3J5M1RVWXY/LB2D1

Departure

Time 2026-05-06 14:20
Airport Soekarno-Hatta International Airport (WIII)

Arrival

Time 2026-05-06 15:57
Airport Kuala Lumpur International Airport (WMKK)
Time Latitude Longitude Altitude Speed Heading
2026-05-06 13:04 -6.11845 106.66235 42 ft 0 kts 158°
2026-05-06 14:08 -6.11838 106.66232 41 ft 2 kts 158°
2026-05-06 14:08 -6.11823 106.66226 41 ft 2 kts 161°
2026-05-06 14:08 -6.11807 106.66221 39 ft 2 kts 165°
2026-05-06 14:08 -6.11791 106.66218 38 ft 2 kts 169°
2026-05-06 14:09 -6.11775 106.66215 42 ft 2 kts 178°
2026-05-06 14:09 -6.11764 106.66216 42 ft 2 kts 189°
2026-05-06 14:09 -6.11744 106.66224 38 ft 2 kts 229°
2026-05-06 14:09 -6.11737 106.66235 39 ft 1 kts 247°
2026-05-06 14:10 -6.11736 106.66237 39 ft 0 kts 248°
2026-05-06 14:10 -6.11736 106.66235 39 ft 1 kts 250°
2026-05-06 14:11 -6.11740 106.66225 39 ft 3 kts 251°
2026-05-06 14:11 -6.11751 106.66193 41 ft 6 kts 250°
2026-05-06 14:11 -6.11770 106.66144 42 ft 9 kts 248°
2026-05-06 14:11 -6.11796 106.66078 42 ft 11 kts 253°
2026-05-06 14:12 -6.11785 106.66026 42 ft 3 kts 307°
2026-05-06 14:12 -6.11773 106.66019 40 ft 3 kts 330°
2026-05-06 14:12 -6.11748 106.66006 42 ft 5 kts 334°
2026-05-06 14:12 -6.11708 106.65988 42 ft 7 kts 337°
2026-05-06 14:13 -6.11653 106.65966 42 ft 10 kts 338°
2026-05-06 14:13 -6.11588 106.65936 42 ft 11 kts 335°
2026-05-06 14:13 -6.11524 106.65891 42 ft 11 kts 302°
2026-05-06 14:13 -6.11525 106.65819 42 ft 11 kts 253°
2026-05-06 14:14 -6.11553 106.65744 42 ft 12 kts 248°
2026-05-06 14:14 -6.11587 106.65658 42 ft 15 kts 248°
2026-05-06 14:14 -6.11627 106.65556 42 ft 17 kts 248°
2026-05-06 14:14 -6.11672 106.65446 42 ft 18 kts 248°
2026-05-06 14:15 -6.11721 106.65324 43 ft 19 kts 248°
2026-05-06 14:15 -6.11773 106.65192 43 ft 21 kts 248°
2026-05-06 14:15 -6.11828 106.65054 43 ft 21 kts 248°
2026-05-06 14:15 -6.11883 106.64914 43 ft 22 kts 248°
2026-05-06 14:16 -6.11943 106.64765 43 ft 23 kts 248°
2026-05-06 14:16 -6.12005 106.64611 43 ft 24 kts 248°
2026-05-06 14:16 -6.12069 106.64449 43 ft 26 kts 248°
2026-05-06 14:16 -6.12136 106.64280 43 ft 26 kts 248°
2026-05-06 14:17 -6.12196 106.64132 43 ft 21 kts 248°
2026-05-06 14:17 -6.12249 106.63993 43 ft 21 kts 254°
2026-05-06 14:17 -6.12239 106.63922 44 ft 6 kts 306°
2026-05-06 14:17 -6.12214 106.63902 44 ft 4 kts 332°
2026-05-06 14:18 -6.12193 106.63897 45 ft 3 kts 351°
2026-05-06 14:18 -6.12173 106.63900 45 ft 4 kts 13°
2026-05-06 14:18 -6.12134 106.63916 45 ft 8 kts 26°
2026-05-06 14:18 -6.12087 106.63954 44 ft 10 kts 50°
2026-05-06 14:19 -6.12047 106.64025 44 ft 13 kts 66°
2026-05-06 14:19 -6.11963 106.64233 44 ft 61 kts 68°
2026-05-06 14:19 -6.11730 106.64818 47 ft 117 kts 68°
2026-05-06 14:19 -6.11369 106.65730 104 ft 159 kts 69°
2026-05-06 14:20 -6.10952 106.66800 612 ft 162 kts 69°
2026-05-06 14:20 -6.10538 106.67842 1289 ft 160 kts 66°
2026-05-06 14:20 -6.09731 106.68695 1548 ft 184 kts 33°
2026-05-06 14:20 -6.08546 106.69374 1740 ft 209 kts 30°
2026-05-06 14:21 -6.07187 106.70128 1945 ft 237 kts 30°
2026-05-06 14:21 -6.05696 106.70998 2335 ft 254 kts 32°
2026-05-06 14:21 -6.04168 106.71922 3034 ft 258 kts 33°
2026-05-06 14:21 -6.02630 106.72870 3757 ft 261 kts 33°
2026-05-06 14:22 -6.01077 106.73837 4485 ft 264 kts 34°
2026-05-06 14:22 -5.99536 106.74803 5226 ft 266 kts 34°
2026-05-06 14:22 -5.97903 106.75715 5946 ft 272 kts 21°
2026-05-06 14:22 -5.96001 106.75819 6665 ft 282 kts 348°
2026-05-06 14:23 -5.94262 106.74891 7142 ft 289 kts 317°
2026-05-06 14:23 -5.93192 106.73182 7287 ft 294 kts 285°
2026-05-06 14:23 -5.92878 106.71145 7662 ft 297 kts 278°
2026-05-06 14:23 -5.92513 106.69091 8382 ft 300 kts 283°
2026-05-06 14:24 -5.91955 106.67068 9171 ft 302 kts 288°
2026-05-06 14:24 -5.91250 106.65073 9951 ft 304 kts 291°
2026-05-06 14:24 -5.90444 106.63072 10454 ft 316 kts 293°
2026-05-06 14:24 -5.89545 106.60993 10816 ft 333 kts 294°
2026-05-06 14:25 -5.88564 106.58806 11001 ft 354 kts 295°
2026-05-06 14:25 -5.87517 106.56515 10827 ft 365 kts 295°
2026-05-06 14:25 -5.86452 106.54204 10808 ft 365 kts 295°
2026-05-06 14:25 -5.85383 106.51895 10787 ft 364 kts 295°
2026-05-06 14:26 -5.84316 106.49593 10879 ft 364 kts 295°
2026-05-06 14:26 -5.83242 106.47279 11345 ft 368 kts 295°
2026-05-06 14:26 -5.82157 106.44944 11998 ft 370 kts 295°
2026-05-06 14:26 -5.81039 106.42606 12650 ft 373 kts 299°
2026-05-06 14:27 -5.79551 106.40465 13226 ft 376 kts 313°
2026-05-06 14:27 -5.77603 106.38707 13824 ft 378 kts 323°
2026-05-06 14:27 -5.75495 106.37117 14369 ft 380 kts 325°
2026-05-06 14:27 -5.73342 106.35564 14929 ft 382 kts 326°
2026-05-06 14:28 -5.71171 106.34014 15483 ft 384 kts 326°
2026-05-06 14:28 -5.68981 106.32458 16033 ft 386 kts 326°
2026-05-06 14:28 -5.66784 106.30897 16566 ft 389 kts 326°
2026-05-06 14:28 -5.64565 106.29323 17014 ft 394 kts 326°
2026-05-06 14:29 -5.62300 106.27716 17209 ft 404 kts 326°
2026-05-06 14:29 -5.59974 106.26066 17417 ft 414 kts 326°
2026-05-06 14:29 -5.57595 106.24380 17630 ft 422 kts 326°
2026-05-06 14:29 -5.55188 106.22672 18001 ft 425 kts 326°
2026-05-06 14:30 -5.52767 106.20955 18357 ft 427 kts 326°
2026-05-06 14:30 -5.50333 106.19229 18686 ft 430 kts 326°
2026-05-06 14:30 -5.47886 106.17494 19000 ft 432 kts 326°
2026-05-06 14:30 -5.45422 106.15747 19269 ft 435 kts 326°
2026-05-06 14:31 -5.42947 106.13993 19599 ft 436 kts 326°
2026-05-06 14:31 -5.40492 106.12253 19907 ft 438 kts 326°
2026-05-06 14:31 -5.38000 106.10487 20197 ft 440 kts 326°
2026-05-06 14:31 -5.35491 106.08709 20484 ft 442 kts 326°
2026-05-06 14:32 -5.32968 106.06922 20762 ft 444 kts 326°
2026-05-06 14:32 -5.30441 106.05132 21043 ft 446 kts 326°
2026-05-06 14:32 -5.27900 106.03331 21345 ft 448 kts 326°
2026-05-06 14:32 -5.25350 106.01525 21613 ft 450 kts 326°
2026-05-06 14:33 -5.22784 105.99708 21867 ft 452 kts 326°
2026-05-06 14:33 -5.20211 105.97886 22135 ft 454 kts 326°
2026-05-06 14:33 -5.17628 105.96057 22397 ft 456 kts 326°
2026-05-06 14:33 -5.15030 105.94218 22663 ft 458 kts 326°
2026-05-06 14:34 -5.12395 105.92422 22897 ft 459 kts 329°
2026-05-06 14:34 -5.09662 105.90740 23068 ft 463 kts 331°
2026-05-06 14:34 -5.06868 105.89121 23307 ft 464 kts 332°
2026-05-06 14:34 -5.04046 105.87532 23539 ft 466 kts 332°
2026-05-06 14:35 -5.01213 105.85949 23731 ft 468 kts 332°
2026-05-06 14:35 -4.98367 105.84357 23943 ft 469 kts 332°
2026-05-06 14:35 -4.95514 105.82752 24157 ft 470 kts 332°
2026-05-06 14:35 -4.92661 105.81139 24370 ft 472 kts 332°
2026-05-06 14:36 -4.89800 105.79514 24593 ft 473 kts 332°
2026-05-06 14:36 -4.86931 105.77882 24780 ft 475 kts 332°
2026-05-06 14:36 -4.84057 105.76245 24986 ft 476 kts 332°
2026-05-06 14:36 -4.81165 105.74597 25081 ft 481 kts 332°
2026-05-06 14:37 -4.78248 105.72936 25220 ft 483 kts 332°
2026-05-06 14:37 -4.75316 105.71267 25385 ft 485 kts 332°
2026-05-06 14:37 -4.72374 105.69592 25565 ft 487 kts 332°
2026-05-06 14:37 -4.69423 105.67912 25756 ft 488 kts 332°
2026-05-06 14:38 -4.66467 105.66230 25951 ft 489 kts 332°
2026-05-06 14:38 -4.63500 105.64541 26139 ft 491 kts 332°
2026-05-06 14:38 -4.60531 105.62852 26303 ft 492 kts 332°
2026-05-06 14:38 -4.57550 105.61157 26505 ft 493 kts 332°
2026-05-06 14:39 -4.54557 105.59455 26676 ft 495 kts 332°
2026-05-06 14:39 -4.51566 105.57753 26858 ft 496 kts 332°
2026-05-06 14:39 -4.48600 105.56067 27030 ft 497 kts 332°
2026-05-06 14:39 -4.45591 105.54356 27207 ft 498 kts 332°
2026-05-06 14:40 -4.42567 105.52637 27384 ft 500 kts 332°
2026-05-06 14:40 -4.39544 105.50918 27554 ft 501 kts 332°
2026-05-06 14:40 -4.36507 105.49192 27704 ft 502 kts 332°
2026-05-06 14:40 -4.33460 105.47460 27882 ft 504 kts 332°
2026-05-06 14:41 -4.30410 105.45726 28045 ft 505 kts 332°
2026-05-06 14:41 -4.27353 105.43989 28218 ft 506 kts 332°
2026-05-06 14:41 -4.24290 105.42248 28375 ft 507 kts 332°
2026-05-06 14:41 -4.21213 105.40500 28547 ft 508 kts 332°
2026-05-06 14:42 -4.18135 105.38751 28687 ft 510 kts 332°
2026-05-06 14:42 -4.15045 105.36996 28754 ft 511 kts 332°
2026-05-06 14:42 -4.08862 105.33484 28676 ft 511 kts 332°
2026-05-06 14:43 -4.02674 105.29969 28886 ft 512 kts 332°
2026-05-06 14:43 -3.99573 105.28208 29076 ft 512 kts 332°
2026-05-06 14:43 -3.96473 105.26449 29239 ft 513 kts 332°
2026-05-06 14:44 -3.93364 105.24684 29381 ft 514 kts 332°
2026-05-06 14:44 -3.90245 105.22917 29520 ft 515 kts 332°
2026-05-06 14:44 -3.87123 105.21156 29833 ft 512 kts 332°
2026-05-06 14:45 -3.81044 105.17732 31075 ft 492 kts 332°
2026-05-06 14:45 -3.78071 105.16059 31477 ft 489 kts 332°
2026-05-06 14:45 -3.75107 105.14391 31740 ft 489 kts 332°
2026-05-06 14:45 -3.72139 105.12722 31972 ft 490 kts 332°
2026-05-06 14:46 -3.69169 105.11052 32271 ft 489 kts 332°
2026-05-06 14:46 -3.66211 105.09387 32624 ft 487 kts 332°
2026-05-06 14:46 -3.63267 105.07730 32982 ft 484 kts 332°
2026-05-06 14:46 -3.60335 105.06080 33297 ft 483 kts 332°
2026-05-06 14:47 -3.57411 105.04435 33596 ft 482 kts 332°
2026-05-06 14:47 -3.54489 105.02791 33880 ft 481 kts 332°
2026-05-06 14:47 -3.51570 105.01148 34151 ft 480 kts 332°
2026-05-06 14:47 -3.48661 104.99511 34407 ft 479 kts 332°
2026-05-06 14:48 -3.45758 104.97879 34664 ft 478 kts 332°
2026-05-06 14:48 -3.42858 104.96247 34919 ft 478 kts 332°
2026-05-06 14:48 -3.39966 104.94621 35178 ft 477 kts 332°
2026-05-06 14:48 -3.37077 104.92996 35442 ft 476 kts 332°
2026-05-06 14:49 -3.34234 104.91396 35694 ft 475 kts 332°
2026-05-06 14:49 -3.31359 104.89780 35950 ft 474 kts 332°
2026-05-06 14:49 -3.28493 104.88168 36193 ft 473 kts 332°
2026-05-06 14:49 -3.25624 104.86555 36442 ft 472 kts 332°
2026-05-06 14:50 -3.22763 104.84946 36691 ft 472 kts 332°
2026-05-06 14:50 -3.19903 104.83338 36932 ft 471 kts 332°
2026-05-06 14:50 -3.17052 104.81736 37176 ft 470 kts 332°
2026-05-06 14:50 -3.14205 104.80135 37441 ft 469 kts 332°
2026-05-06 14:51 -3.11360 104.78536 37706 ft 468 kts 332°
2026-05-06 14:51 -3.08520 104.76940 37864 ft 469 kts 332°
2026-05-06 14:51 -3.05680 104.75343 37878 ft 468 kts 332°
2026-05-06 14:52 -3.00003 104.72153 37882 ft 468 kts 332°
2026-05-06 14:52 -2.94325 104.68962 38105 ft 468 kts 332°
2026-05-06 14:52 -2.91500 104.67376 38459 ft 464 kts 333°
2026-05-06 14:53 -2.88605 104.65980 38711 ft 461 kts 340°
2026-05-06 14:53 -2.85564 104.65001 38898 ft 458 kts 347°
2026-05-06 14:53 -2.82463 104.64277 39077 ft 457 kts 349°
2026-05-06 14:53 -2.79350 104.63640 39219 ft 457 kts 350°
2026-05-06 14:54 -2.77282 104.63245 39334 ft 456 kts 351°
2026-05-06 14:54 -2.73105 104.62478 39561 ft 456 kts 351°
2026-05-06 14:54 -2.69987 104.61911 39738 ft 455 kts 351°
2026-05-06 14:54 -2.66873 104.61340 39848 ft 456 kts 351°
2026-05-06 14:55 -2.64801 104.60957 39869 ft 458 kts 351°
2026-05-06 14:55 -2.58528 104.59782 39872 ft 459 kts 350°
2026-05-06 14:56 -2.52259 104.58597 39870 ft 458 kts 351°
2026-05-06 14:56 -2.45995 104.57411 39875 ft 458 kts 351°
2026-05-06 14:57 -2.39737 104.56228 39875 ft 458 kts 351°
2026-05-06 14:57 -2.33476 104.55045 39878 ft 458 kts 351°
2026-05-06 14:58 -2.27215 104.53862 39878 ft 458 kts 351°
2026-05-06 14:58 -2.20947 104.52678 39883 ft 458 kts 351°
2026-05-06 14:59 -2.14675 104.51494 39884 ft 459 kts 351°
2026-05-06 14:59 -2.08394 104.50307 39883 ft 459 kts 351°
2026-05-06 15:00 -2.02114 104.49121 39886 ft 459 kts 351°
2026-05-06 15:00 -1.95837 104.47936 39889 ft 459 kts 351°
2026-05-06 15:01 -1.89558 104.46750 39894 ft 459 kts 351°
2026-05-06 15:01 -1.83277 104.45565 39890 ft 459 kts 350°
2026-05-06 15:02 -1.76981 104.44376 39894 ft 461 kts 350°
2026-05-06 15:02 -1.70666 104.43184 39895 ft 462 kts 350°
2026-05-06 15:03 -1.64354 104.41992 39897 ft 462 kts 350°
2026-05-06 15:03 -1.58038 104.40800 39895 ft 462 kts 350°
2026-05-06 15:04 -1.51725 104.39609 39896 ft 462 kts 350°
2026-05-06 15:04 -1.45410 104.38417 39898 ft 462 kts 351°
2026-05-06 15:05 -1.39086 104.37223 39894 ft 463 kts 351°
2026-05-06 15:05 -1.32749 104.36027 39889 ft 463 kts 351°
2026-05-06 15:06 -1.26419 104.34833 39891 ft 463 kts 351°
2026-05-06 15:06 -1.20125 104.33645 39889 ft 463 kts 351°
2026-05-06 15:07 -1.13795 104.32451 39890 ft 463 kts 351°
2026-05-06 15:07 -1.07463 104.31256 39892 ft 462 kts 351°
2026-05-06 15:08 -1.01149 104.30065 39894 ft 461 kts 351°
2026-05-06 15:08 -0.94841 104.28875 39892 ft 461 kts 351°
2026-05-06 15:09 -0.88534 104.27685 39890 ft 461 kts 351°
2026-05-06 15:09 -0.82229 104.26496 39889 ft 461 kts 351°
2026-05-06 15:10 -0.75924 104.25306 39887 ft 461 kts 351°
2026-05-06 15:10 -0.69613 104.24116 39889 ft 461 kts 351°
2026-05-06 15:11 -0.63309 104.22927 39890 ft 461 kts 351°
2026-05-06 15:11 -0.57004 104.21737 39892 ft 461 kts 351°
2026-05-06 15:12 -0.50709 104.20507 39890 ft 461 kts 350°
2026-05-06 15:12 -0.44414 104.19250 39892 ft 461 kts 350°
2026-05-06 15:13 -0.38126 104.17996 39887 ft 461 kts 350°
2026-05-06 15:13 -0.31837 104.16745 39889 ft 461 kts 350°
2026-05-06 15:14 -0.25547 104.15497 39892 ft 461 kts 350°
2026-05-06 15:14 -0.19250 104.14247 39892 ft 461 kts 350°
2026-05-06 15:15 -0.12997 104.13006 39890 ft 461 kts 350°
2026-05-06 15:15 -0.06703 104.11757 39892 ft 461 kts 350°
2026-05-06 15:16 -0.00408 104.10508 39893 ft 461 kts 350°
2026-05-06 15:16 0.05886 104.09259 39886 ft 461 kts 350°
2026-05-06 15:17 0.12181 104.08009 39889 ft 461 kts 350°
2026-05-06 15:17 0.18471 104.06761 39886 ft 461 kts 350°
2026-05-06 15:18 0.24764 104.05512 39884 ft 461 kts 350°
2026-05-06 15:18 0.31055 104.04265 39884 ft 461 kts 350°
2026-05-06 15:19 0.37348 104.03018 39881 ft 461 kts 350°
2026-05-06 15:19 0.43641 104.01771 39881 ft 461 kts 350°
2026-05-06 15:20 0.49939 104.00524 39880 ft 461 kts 350°
2026-05-06 15:20 0.56234 103.99277 39878 ft 461 kts 350°
2026-05-06 15:21 0.62525 103.98028 39878 ft 461 kts 350°
2026-05-06 15:21 0.68818 103.96778 39878 ft 461 kts 350°
2026-05-06 15:22 0.75108 103.95513 39875 ft 461 kts 350°
2026-05-06 15:22 0.81386 103.94192 39873 ft 461 kts 349°
2026-05-06 15:23 0.87668 103.92856 39871 ft 461 kts 349°
2026-05-06 15:23 0.93950 103.91525 39867 ft 461 kts 349°
2026-05-06 15:24 1.00230 103.90199 39868 ft 461 kts 349°
2026-05-06 15:24 1.06508 103.88872 39878 ft 461 kts 349°
2026-05-06 15:25 1.12792 103.87543 39890 ft 461 kts 349°
2026-05-06 15:25 1.19066 103.86207 39896 ft 461 kts 348°
2026-05-06 15:26 1.25094 103.83982 39906 ft 464 kts 336°
2026-05-06 15:26 1.30880 103.81093 39908 ft 465 kts 334°
2026-05-06 15:27 1.36617 103.78101 39663 ft 463 kts 334°
2026-05-06 15:27 1.39467 103.76621 39427 ft 461 kts 334°
2026-05-06 15:27 1.42315 103.75153 39177 ft 461 kts 334°
2026-05-06 15:27 1.45178 103.73683 38943 ft 462 kts 335°
2026-05-06 15:28 1.48003 103.72236 38719 ft 463 kts 336°
2026-05-06 15:28 1.50976 103.71006 38486 ft 462 kts 342°
2026-05-06 15:28 1.54017 103.69958 38212 ft 463 kts 343°
2026-05-06 15:28 1.57080 103.68963 37955 ft 464 kts 344°
2026-05-06 15:29 1.60139 103.67924 37545 ft 466 kts 340°
2026-05-06 15:29 1.63060 103.66487 36895 ft 470 kts 330°
2026-05-06 15:29 1.65705 103.64558 36376 ft 472 kts 320°
2026-05-06 15:29 1.67949 103.62171 35801 ft 474 kts 308°
2026-05-06 15:30 1.69730 103.59392 35212 ft 476 kts 300°
2026-05-06 15:30 1.71290 103.56472 34613 ft 477 kts 298°
2026-05-06 15:30 1.72761 103.53496 34006 ft 479 kts 297°
2026-05-06 15:30 1.74198 103.50486 33313 ft 480 kts 296°
2026-05-06 15:31 1.75632 103.47464 32552 ft 483 kts 296°
2026-05-06 15:31 1.77081 103.44428 31793 ft 486 kts 296°
2026-05-06 15:31 1.78548 103.41383 31137 ft 486 kts 296°
2026-05-06 15:32 1.81496 103.35336 30078 ft 481 kts 296°
2026-05-06 15:32 1.82961 103.32348 29505 ft 477 kts 296°
2026-05-06 15:32 1.84419 103.29378 28949 ft 474 kts 297°
2026-05-06 15:32 1.85867 103.26430 28374 ft 470 kts 297°
2026-05-06 15:33 1.87302 103.23505 27820 ft 468 kts 297°
2026-05-06 15:33 1.88729 103.20597 27290 ft 464 kts 297°
2026-05-06 15:33 1.90145 103.17710 26778 ft 460 kts 297°
2026-05-06 15:33 1.91547 103.14851 26272 ft 457 kts 297°
2026-05-06 15:34 1.92941 103.12007 25760 ft 453 kts 297°
2026-05-06 15:34 1.94323 103.09190 25266 ft 450 kts 297°
2026-05-06 15:34 1.95693 103.06394 24775 ft 447 kts 297°
2026-05-06 15:34 1.97056 103.03613 24286 ft 443 kts 297°
2026-05-06 15:35 1.98409 103.00854 23810 ft 440 kts 297°
2026-05-06 15:35 1.99751 102.98115 23308 ft 437 kts 297°
2026-05-06 15:35 2.01084 102.95397 22730 ft 433 kts 297°
2026-05-06 15:35 2.02396 102.92719 21889 ft 424 kts 297°
2026-05-06 15:36 2.03683 102.90092 20823 ft 418 kts 297°
2026-05-06 15:36 2.04954 102.87495 19830 ft 413 kts 297°
2026-05-06 15:36 2.06202 102.84940 18877 ft 406 kts 297°
2026-05-06 15:36 2.07432 102.82419 17918 ft 400 kts 297°
2026-05-06 15:37 2.08641 102.79942 16884 ft 393 kts 297°
2026-05-06 15:37 2.09829 102.77506 15909 ft 387 kts 297°
2026-05-06 15:37 2.10998 102.75111 14947 ft 381 kts 297°
2026-05-06 15:37 2.12150 102.72749 14016 ft 374 kts 296°
2026-05-06 15:38 2.13281 102.70432 13044 ft 368 kts 296°
2026-05-06 15:38 2.14395 102.68150 12046 ft 361 kts 296°
2026-05-06 15:38 2.15487 102.65914 11117 ft 356 kts 296°
2026-05-06 15:38 2.16593 102.63716 10466 ft 353 kts 297°
2026-05-06 15:39 2.17753 102.61559 10121 ft 352 kts 298°
2026-05-06 15:39 2.18917 102.59424 9942 ft 345 kts 298°
2026-05-06 15:39 2.20045 102.57355 9727 ft 333 kts 298°
2026-05-06 15:39 2.21136 102.55355 9481 ft 322 kts 298°
2026-05-06 15:40 2.21839 102.54064 9319 ft 316 kts 297°
2026-05-06 15:40 2.22754 102.52106 9075 ft 307 kts 292°
2026-05-06 15:40 2.23863 102.49529 8756 ft 297 kts 292°
2026-05-06 15:40 2.24391 102.48276 8598 ft 295 kts 292°
2026-05-06 15:41 2.25443 102.45747 8271 ft 294 kts 292°
2026-05-06 15:41 2.25959 102.44497 8103 ft 294 kts 292°
2026-05-06 15:41 2.26736 102.42608 7868 ft 293 kts 292°
2026-05-06 15:41 2.27507 102.40729 7642 ft 292 kts 292°
2026-05-06 15:42 2.28275 102.38856 7399 ft 291 kts 292°
2026-05-06 15:42 2.29041 102.36985 7161 ft 290 kts 292°
2026-05-06 15:42 2.29803 102.35124 6931 ft 289 kts 292°
2026-05-06 15:42 2.30561 102.33270 6691 ft 287 kts 292°
2026-05-06 15:43 2.31316 102.31425 6455 ft 286 kts 292°
2026-05-06 15:43 2.32065 102.29594 6273 ft 284 kts 292°
2026-05-06 15:43 2.32810 102.27772 6152 ft 283 kts 292°
2026-05-06 15:43 2.33555 102.25951 6027 ft 283 kts 292°
2026-05-06 15:44 2.34300 102.24132 5901 ft 282 kts 292°
2026-05-06 15:44 2.35040 102.22321 5776 ft 282 kts 292°
2026-05-06 15:44 2.35783 102.20504 5564 ft 282 kts 292°
2026-05-06 15:44 2.36524 102.18692 5326 ft 282 kts 292°
2026-05-06 15:45 2.37263 102.16885 5084 ft 281 kts 292°
2026-05-06 15:45 2.38000 102.15082 4904 ft 280 kts 292°
2026-05-06 15:45 2.38736 102.13282 4783 ft 279 kts 292°
2026-05-06 15:45 2.39469 102.11490 4663 ft 278 kts 292°
2026-05-06 15:46 2.40199 102.09705 4541 ft 278 kts 292°
2026-05-06 15:46 2.40929 102.07920 4492 ft 277 kts 292°
2026-05-06 15:46 2.41659 102.06133 4489 ft 277 kts 292°
2026-05-06 15:46 2.42390 102.04346 4486 ft 278 kts 292°
2026-05-06 15:47 2.43118 102.02566 4476 ft 278 kts 292°
2026-05-06 15:47 2.43852 102.00771 4483 ft 278 kts 292°
2026-05-06 15:47 2.44564 101.99028 4481 ft 263 kts 292°
2026-05-06 15:47 2.45237 101.97381 4482 ft 248 kts 292°
2026-05-06 15:48 2.45872 101.95826 4482 ft 234 kts 292°
2026-05-06 15:48 2.46474 101.94350 4482 ft 227 kts 292°
2026-05-06 15:48 2.47071 101.92891 4481 ft 226 kts 293°
2026-05-06 15:48 2.47645 101.91492 4514 ft 210 kts 294°
2026-05-06 15:49 2.48400 101.90269 4528 ft 207 kts 311°
2026-05-06 15:49 2.49468 101.89311 4532 ft 206 kts 325°
2026-05-06 15:49 2.50654 101.88507 4535 ft 206 kts 328°
2026-05-06 15:49 2.51851 101.87716 4534 ft 206 kts 327°
2026-05-06 15:50 2.53034 101.86917 4528 ft 200 kts 327°
2026-05-06 15:50 2.54123 101.86179 4519 ft 183 kts 327°
2026-05-06 15:50 2.55120 101.85505 4508 ft 162 kts 328°
2026-05-06 15:50 2.56012 101.84905 4382 ft 149 kts 328°
2026-05-06 15:51 2.56857 101.84336 4168 ft 145 kts 327°
2026-05-06 15:51 2.57691 101.83775 3960 ft 145 kts 328°
2026-05-06 15:51 2.58529 101.83210 3731 ft 145 kts 327°
2026-05-06 15:51 2.59364 101.82647 3536 ft 145 kts 327°
2026-05-06 15:52 2.60200 101.82084 3362 ft 145 kts 327°
2026-05-06 15:52 2.61032 101.81523 3176 ft 144 kts 328°
2026-05-06 15:52 2.61864 101.80962 2998 ft 145 kts 328°
2026-05-06 15:52 2.62698 101.80400 2803 ft 144 kts 327°
2026-05-06 15:53 2.63530 101.79840 2630 ft 144 kts 327°
2026-05-06 15:53 2.64360 101.79280 2446 ft 144 kts 327°
2026-05-06 15:53 2.65191 101.78720 2261 ft 144 kts 327°
2026-05-06 15:53 2.66018 101.78162 2070 ft 143 kts 327°
2026-05-06 15:54 2.66841 101.77608 1900 ft 142 kts 327°
2026-05-06 15:54 2.67656 101.77060 1714 ft 141 kts 327°
2026-05-06 15:54 2.68471 101.76510 1541 ft 141 kts 327°
2026-05-06 15:54 2.69285 101.75961 1356 ft 141 kts 327°
2026-05-06 15:55 2.70093 101.75415 1170 ft 140 kts 327°
2026-05-06 15:55 2.70896 101.74875 998 ft 138 kts 327°
2026-05-06 15:55 2.71687 101.74341 831 ft 137 kts 327°
2026-05-06 15:55 2.72472 101.73812 674 ft 136 kts 326°
2026-05-06 15:56 2.73253 101.73284 493 ft 135 kts 326°
2026-05-06 15:56 2.74022 101.72752 319 ft 134 kts 325°
2026-05-06 15:56 2.74792 101.72233 141 ft 134 kts 326°
2026-05-06 15:56 2.75541 101.71741 67 ft 111 kts 326°
2026-05-06 15:57 2.76017 101.71417 69 ft 54 kts 326°
2026-05-06 15:57 2.76304 101.71223 65 ft 48 kts 325°
2026-05-06 15:57 2.76513 101.71039 61 ft 29 kts 306°
2026-05-06 15:57 2.76579 101.70911 68 ft 13 kts 284°
2026-05-06 15:58 2.76553 101.70864 64 ft 7 kts 214°
2026-05-06 15:58 2.76532 101.70862 59 ft 3 kts 175°
2026-05-06 15:58 2.76507 101.70868 60 ft 4 kts 163°
2026-05-06 15:58 2.76472 101.70884 65 ft 7 kts 150°
2026-05-06 15:59 2.76418 101.70917 63 ft 11 kts 148°
2026-05-06 15:59 2.76340 101.70969 60 ft 16 kts 146°
2026-05-06 15:59 2.76236 101.71020 60 ft 17 kts 161°
2026-05-06 15:59 2.76121 101.71042 73 ft 17 kts 169°
2026-05-06 16:00 2.76013 101.71078 65 ft 16 kts 154°
2026-05-06 16:00 2.75919 101.71137 65 ft 16 kts 147°
2026-05-06 16:00 2.75825 101.71199 69 ft 16 kts 147°
2026-05-06 16:00 2.75732 101.71263 68 ft 17 kts 144°
2026-05-06 16:01 2.75639 101.71303 67 ft 12 kts 184°
2026-05-06 16:01 2.75593 101.71277 69 ft 5 kts 226°
2026-05-06 16:01 2.75570 101.71247 66 ft 6 kts 236°
2026-05-06 16:01 2.75546 101.71212 71 ft 7 kts 235°
2026-05-06 16:02 2.75510 101.71161 66 ft 11 kts 235°
2026-05-06 16:02 2.75464 101.71094 69 ft 13 kts 237°
2026-05-06 16:02 2.75414 101.71018 66 ft 5 kts 236°
2026-05-06 16:02 2.75391 101.70982 67 ft 6 kts 238°
2026-05-06 16:03 2.75387 101.70969 68 ft 1 kts 257°
2026-05-06 16:03 2.75387 101.70964 70 ft 0 kts 268°
2026-05-06 16:03 2.75388 101.70963 67 ft 0 kts 276°
2026-05-06 16:03 2.75389 101.70960 67 ft 1 kts 279°
2026-05-06 16:04 2.75392 101.70947 70 ft 2 kts 291°
2026-05-06 16:04 2.75402 101.70933 66 ft 4 kts 304°
2026-05-06 16:04 2.75417 101.70917 69 ft 4 kts 318°
2026-05-06 16:04 2.75426 101.70910 66 ft 0 kts 322°
2026-05-06 16:05 2.75430 101.70907 66 ft 1 kts 322°